266  
NZUS01 KOTX 280825  
RWROTX  
 
EASTERN WASHINGTON/NORTHERN IDAHO ROUNDUP  
NATIONAL WEATHER SERVICE, SPOKANE WA  
100 AM PDT SUN MAY 28 2017  
 
NOTE: "FAIR" INDICATED FEW OR NO CLOUDS BELOW 12,000 FEET WITH NO  
SIGNIFICANT WEATHER AND/OR S TO VISIBILITY
.  
   
..NORTHEAST WASHINGTON AND NORTHERN IDAHO PANHANDLE
 
 
 
CITY SKY/WX TMP DP RH WIND PRES REMARKS
 
SPOKANE INTL PTCLDY 63 44 50 S5 30.14S  
SPOKANE DOWNTO CLEAR 59 48 67 NE3 30.14R  
COEUR D ALENE CLEAR 58 49 72 SE5 30.15S  
DEER PARK CLEAR 50 45 83 CALM 30.14R  
SANDPOINT CLEAR 50 45 81 CALM 30.15R  
BONNERS FERRY FAIR 57 46 67 CALM 30.15R  
   
..SOUTHEAST WASHINGTON AND SOUTHERN IDAHO PANHANDLE
 
 
 
CITY SKY/WX TMP DP RH WIND PRES REMARKS
 
WALLA WALLA CLEAR 65 46 50 E8 30.06S  
PULLMAN/MOSCOW CLEAR 56 44 64 CALM 30.16S  
LEWISTON CLEAR 61 46 57 CALM 30.11S  
LOWELL N/A 52 47 83 N3 30.19R  
GRANGEVILLE FAIR 50 41 71 SW6 30.19R  
   
..COLUMBIA BASIN
 
 
 
CITY SKY/WX TMP DP RH WIND PRES REMARKS
 
EPHRATA CLEAR 58 40 51 NE7 30.08R  
MOSES LAKE CLEAR 57 45 64 N5 30.09R  
PASCO CLEAR 57 51 80 CALM 30.05S  
RICHLAND SUNNY 58 51 78 CALM 30.05S  
HERMISTON CLEAR 57 50 77 E6 30.04S  
PENDLETON CLEAR 58 47 66 SE9 30.08R  
   
..EAST SLOPES CASCADES
 
 
 
CITY SKY/WX TMP DP RH WIND PRES REMARKS
 
THE DALLES CLEAR 61 46 57 E6 30.05R  
YAKIMA CLEAR 58 46 64 W6 30.09S  
ELLENSBURG CLEAR 59 43 55 CALM 30.11S  
STAMPEDE PASS CLEAR 60 40 47 CALM 30.21S  
WENATCHEE CLEAR 67 44 43 NW6 30.09R  
OMAK CLEAR 62 44 51 W8 30.10R  
SUNNYSIDE SUNNY 55 46 72 CALM 30.07R  
   
..SOUTHERN BRITISH COLUMBIA
 
 
 
CITY SKY/WX TMP DP RH WIND PRES REMARKS
 
PENTICTON PTCLDY 55 48 76 VRB2 30.08R  
CRANBROOK CLEAR 57 36 44 W12G17 30.16R  
OSOYOOS N/A 59 52 77 NE1 N/A  
CRESTON N/A 61 43 51 NW1 N/A  
   
..WESTERN MONTANA
 
 
 
CITY SKY/WX TMP DP RH WIND PRES REMARKS
 
KALISPELL MOSUNNY 47 44 90 NW3 30.15R  
MISSOULA CLEAR 54 41 61 CALM 30.22R  
   
..NEIGHBORING CITIES
 
 
 
CITY SKY/WX TMP DP RH WIND PRES REMARKS
 
SEATTLE CLEAR 65 48 54 N7 30.07R  
PORTLAND CLEAR 65 56 72 CALM 30.04R  
BOISE CLEAR 58 41 53 SE9 30.16S  
GREAT FALLS CLOUDY 51 41 68 E5 30.17S  
CALGARY PTCLDY 57 41 54 NW7 30.20R  
 
CLICK HERE TO GO TO PREVIOUS BULLETINS.

The Nexlab WA Page
The Nexlab ID Page Main Text Page